Waarnemingen

Advertentie
Mijn weer
Aurillac, Frankrijk (7549): temperatuur & dauwpunt: 20.09.2018 09:00:00 - 26.09.2018 09:00:00 (CEST)Aurillac, Frankrijk (7549): temperatuur 5cm: 20.09.2018 09:00:00 - 26.09.2018 09:00:00 (CEST)Aurillac, Frankrijk (7549): temperatuur -20cm & temperatuur -100cm: 20.09.2018 09:00:00 - 26.09.2018 09:00:00 (CEST)Aurillac, Frankrijk (7549): windsnelheid & windstoten: 20.09.2018 09:00:00 - 26.09.2018 09:00:00 (CEST)Aurillac, Frankrijk (7549): windrichting: 20.09.2018 09:00:00 - 26.09.2018 09:00:00 (CEST)Aurillac, Frankrijk (7549): luchtdruk: 20.09.2018 09:00:00 - 26.09.2018 09:00:00 (CEST)Aurillac, Frankrijk (7549): zicht: 20.09.2018 09:00:00 - 26.09.2018 09:00:00 (CEST)Aurillac, Frankrijk (7549): Zonneschijnduur: 20.09.2018 09:00:00 - 26.09.2018 09:00:00 (CEST)Aurillac, Frankrijk (7549): neerslag: 20.09.2018 09:00:00 - 26.09.2018 09:00:00 (CEST)
Datum & Tijd tt [°C] td [°C] tt 5cm [°C] tt -20cm [°C] tt -100cm [°C] ff [km/u] ff [kn] fx [km/u] fx [kn] dd ppp [hPa] vv [km] sd [min] rr [mm]
26.09.2018 09:00:00 12,8 8,5 9,5 17,1 17,2 10 6 19 10 OZO 1031,9 20 54 0,0
26.09.2018 08:00:00 10,1 7,0 8,7 17,2 17,2 12 7 17 9 OZO 1031,9 59 0 0,0
26.09.2018 07:00:00 10,1 6,1 8,5 17,2 17,2 13 7 18 10 O 1031,5 60 0 0,0
26.09.2018 06:00:00 10,1 6,2 6,0 17,3 17,2 13 7 16 9 O 1031,1 60 0 0,0
26.09.2018 05:00:00 9,6 5,8 6,7 17,3 17,2 6 3 14 7 OZO 1031,2 60 0 0,0
26.09.2018 04:00:00 10,1 6,2 8,3 17,4 17,2 9 5 18 10 OZO 1031,0 41 0 0,0
26.09.2018 03:00:00 10,8 6,7 7,7 17,4 17,2 13 7 16 9 OZO 1030,9 43 0 0,0
26.09.2018 02:00:00 11,5 6,4 9,0 17,4 17,2 11 6 14 8 O 1030,5 43 0 0,0
26.09.2018 01:00:00 12,4 6,0 10,7 17,3 17,2 11 6 14 8 O 1030,2 46 0 0,0
26.09.2018 00:00:00 13,0 5,9 11,6 17,3 17,2 10 5 19 10 OZO 1029,7 49 0 0,0
25.09.2018 23:00:00 13,4 6,3 12,1 17,3 17,2 11 6 16 9 OZO 1029,5 50 0 0,0
25.09.2018 22:00:00 14,4 7,0 11,4 17,2 17,2 9 5 16 9 OZO 1028,6 46 0 0,0
25.09.2018 21:00:00 15,8 7,3 12,2 17,1 17,2 5 3 14 8 ZZO 1028,0 40 0 0,0
25.09.2018 20:00:00 18,2 7,9 17,1 17,0 17,2 10 5 16 9 OZO 1026,6 42 20 0,0
25.09.2018 19:00:00 20,6 8,2 22,3 16,9 17,2 11 6 20 11 OZO 1025,5 39 60 0,0
25.09.2018 18:00:00 21,6 7,4 26,8 16,8 17,3 8 4 23 12 ZZW 1024,8 38 60 0,0
25.09.2018 17:00:00 21,9 6,9 25,3 16,8 17,3 14 7 26 14 Z 1025,1 49 57 0,0
25.09.2018 16:00:00 21,4 7,2 26,8 16,7 17,2 15 8 31 17 ZO 1025,3 20 60 0,0
25.09.2018 15:00:00 21,1 8,0 24,9 16,7 17,2 16 9 27 15 ZZO 1025,8 19 55 0,0
25.09.2018 14:00:00 19,9 6,6 23,0 16,8 17,2 9 5 19 10 ZO 1026,6 20 47 0,0
25.09.2018 13:00:00 17,7 4,6 18,3 16,9 17,3 9 5 24 13 ZO 1027,5 20 29 0,0
25.09.2018 12:00:00 15,4 4,4 17,4 17,0 17,3 14 7 21 11 OZO 1028,0 49 25 0,0
25.09.2018 11:00:00 13,5 3,6 15,1 17,1 17,3 6 4 13 7 ZO 1028,4 36 47 0,0
25.09.2018 10:00:00 9,2 2,1 10,8 17,2 17,3 7 4 10 5 WNW 1029,1 38 60 0,0
25.09.2018 09:00:00 7,0 1,5 -0,3 17,3 17,3 5 3 10 6 O 1029,3 20 58 0,0
25.09.2018 08:00:00 1,4 -0,4 -1,5 17,4 17,3 8 4 11 6 O 1030,7 19 0 0,0
25.09.2018 07:00:00 2,2 -0,1 -1,7 17,5 17,3 5 3 11 6 O 1030,5 36 0 0,0
25.09.2018 06:00:00 2,5 0,2 -1,9 17,7 17,3 2 1 5 3 ZO 1030,4 39 0 0,0
25.09.2018 05:00:00 2,8 0,2 -0,9 17,8 17,3 4 2 10 5 OZO 1030,4 41 0 0,0
25.09.2018 04:00:00 4,0 1,2 -0,9 17,9 17,3 2 1 8 4 OZO 1030,2 44 0 0,0
25.09.2018 03:00:00 3,6 1,0 -0,2 17,9 17,3 2 1 10 5 Z 1031,0 40 0 0,0
25.09.2018 02:00:00 4,8 1,8 0,3 18,0 17,3 4 2 6 4 O 1030,9 43 0 0,0
25.09.2018 01:00:00 5,8 2,6 1,2 18,1 17,3 2 1 8 4 ZZO 1030,5 45 0 0,0
25.09.2018 00:00:00 6,9 2,8 2,1 18,1 17,3 0 0 10 6 N 1030,3 52 0 0,0
24.09.2018 23:00:00 8,0 3,3 4,7 18,2 17,3 8 4 11 6 ZW 1029,8 54 0 0,0
24.09.2018 22:00:00 9,5 1,9 5,4 18,1 17,3 5 3 19 10 ZW 1029,0 54 0 0,0
24.09.2018 21:00:00 11,2 1,7 7,8 18,1 17,3 11 6 26 14 ONO 1028,7 59 0 0,0
24.09.2018 20:00:00 12,1 2,5 10,1 18,1 17,3 10 5 24 13 N 1028,3 57 22 0,0
24.09.2018 19:00:00 14,1 2,0 16,2 18,0 17,3 13 7 26 14 NNO 1027,9 56 60 0,0
24.09.2018 18:00:00 15,2 1,7 19,7 18,0 17,3 8 5 28 15 O 1027,4 60 60 0,0
24.09.2018 17:00:00 16,0 1,7 20,3 18,0 17,3 16 9 27 15 O 1026,9 56 60 0,0
24.09.2018 16:00:00 17,2 0,8 22,9 17,9 17,3 12 6 26 14 OZO 1026,6 53 60 0,0
24.09.2018 15:00:00 16,9 1,7 23,5 18,0 17,3 16 8 24 13 ZZO 1026,7 53 60 0,0
24.09.2018 14:00:00 16,3 4,6 21,7 18,0 17,3 8 4 21 12 WZW 1026,8 46 60 0,0
24.09.2018 13:00:00 14,9 5,7 20,4 18,0 17,3 14 8 23 13 WNW 1027,4 20 60 0,0
24.09.2018 12:00:00 14,5 3,9 18,2 18,1 17,3 5 3 19 10 WZW 1027,4 60 60 0,0
24.09.2018 11:00:00 12,4 4,6 13,6 18,2 17,3 10 5 21 12 ZO 1028,1 60 60 0,0
24.09.2018 10:00:00 11,2 5,7 10,0 18,3 17,3 10 5 15 8 OZO 1027,6 60 50 0,0
24.09.2018 09:00:00 9,5 7,9 7,9 18,3 17,3 5 3 17 9 NW 1027,4 60 32 0,0
24.09.2018 08:00:00 9,1 7,9 6,8 18,4 17,3 7 4 18 10 OZO 1026,6 59 0 0,0
24.09.2018 07:00:00 9,7 8,9 7,5 18,5 17,3 3 1 6 4 W 1026,2 57 0 0,0
24.09.2018 06:00:00 10,7 9,8 9,8 18,5 17,3 4 2 11 6 W 1025,7 60 0 0,0
24.09.2018 05:00:00 11,3 10,4 9,3 18,5 17,3 7 4 18 10 WZW 1025,1 60 0 0,0
24.09.2018 04:00:00 12,2 10,6 11,1 18,6 17,3 13 7 17 9 NW 1024,3 60 0 0,0
24.09.2018 03:00:00 13,5 11,4 12,5 18,6 17,3 12 7 19 11 WNW 1024,6 60 0 0,0
24.09.2018 02:00:00 14,3 12,5 13,1 18,5 17,3 9 5 40 22 NW 1024,1 60 0 0,0
24.09.2018 01:00:00 16,7 15,9 16,4 18,5 17,3 16 9 36 20 WNW 1022,7 15 0 1,2
24.09.2018 00:00:00 17,7 16,4 17,2 18,5 17,3 15 8 28 15 W 1022,1 7 0 0,0
23.09.2018 23:00:00 18,4 16,2 18,4 18,4 17,3 19 10 41 22 NW 1022,4 60 0 0,0
23.09.2018 22:00:00 19,1 16,1 18,2 18,3 17,3 13 7 22 12 WNW 1021,8 56 0 0,0
23.09.2018 21:00:00 19,6 16,1 17,9 18,2 17,3 9 5 15 8 WNW 1021,7 58 0 0,2
23.09.2018 20:00:00 20,6 15,2 20,3 18,1 17,3 8 4 27 15 W 1021,0 59 14 0,0
23.09.2018 19:00:00 21,9 14,8 21,8 18,0 17,3 14 7 23 13 WNW 1020,6 60 10 0,0
23.09.2018 18:00:00 22,9 14,2 23,9 17,9 17,3 19 10 44 24 W 1019,9 60 34 0,0
23.09.2018 17:00:00 24,4 12,4 26,0 17,8 17,3 21 11 32 18 W 1019,5 60 43 0,0
23.09.2018 16:00:00 25,0 12,2 26,7 17,7 17,3 20 11 35 19 WNW 1019,4 51 39 0,0
23.09.2018 15:00:00 25,0 12,9 27,1 17,7 17,3 14 8 26 14 W 1019,9 60 44 0,0
23.09.2018 14:00:00 23,3 13,2 28,5 17,7 17,3 10 6 23 13 W 1020,9 52 53 0,0
23.09.2018 13:00:00 22,7 12,9 28,1 17,7 17,3 9 5 21 11 W 1021,4 60 57 0,0
23.09.2018 12:00:00 21,4 13,1 24,8 17,8 17,4 0 0 9 5 N 1022,1 60 54 0,0
23.09.2018 11:00:00 19,0 12,5 19,9 17,8 17,3 3 2 8 5 Z 1023,2 57 25 0,0
23.09.2018 10:00:00 15,4 11,2 13,7 17,9 17,4 3 1 6 4 OZO 1024,0 57 3 0,0
23.09.2018 09:00:00 12,0 9,2 10,1 18,0 17,4 4 2 8 4 O 1024,6 60 16 0,0
23.09.2018 08:00:00 9,6 7,2 7,3 18,0 17,3 5 3 7 4 OZO 1025,3 58 0 0,0
23.09.2018 07:00:00 9,5 6,8 7,5 18,1 17,4 5 3 6 3 O 1025,1 60 0 0,0
23.09.2018 06:00:00 10,7 7,0 7,4 18,2 17,3 2 1 5 3 O 1024,9 60 0 0,0
23.09.2018 05:00:00 10,0 6,5 7,6 18,2 17,4 5 3 6 3 OZO 1025,2 60 0 0,0
23.09.2018 04:00:00 10,3 6,1 7,8 18,2 17,3 2 1 8 4 O 1025,6 60 0 0,0
23.09.2018 03:00:00 10,6 6,0 8,7 18,3 17,4 6 3 16 8 OZO 1025,9 60 0 0,0
23.09.2018 02:00:00 10,4 6,3 8,2 18,3 17,4 8 4 13 7 O 1026,3 60 0 0,0
23.09.2018 01:00:00 10,6 6,3 8,1 18,3 17,3 5 3 9 5 O 1026,4 60 0 0,0
23.09.2018 00:00:00 11,0 6,1 8,5 18,4 17,4 7 4 8 5 O 1026,4 60 0 0,0
22.09.2018 23:00:00 12,5 6,7 9,1 18,3 17,3 5 3 7 4 O 1026,1 60 0 0,0
22.09.2018 22:00:00 14,2 4,7 10,7 18,3 17,3 2 1 9 5 NO 1025,1 60 0 0,0
22.09.2018 21:00:00 16,3 5,3 11,7 18,2 17,4 3 2 6 4 NNW 1024,1 60 0 0,0
22.09.2018 20:00:00 17,9 5,1 15,3 18,1 17,3 5 3 15 8 NNW 1022,9 60 26 0,0
22.09.2018 19:00:00 20,3 2,6 21,9 18,1 17,4 11 6 20 11 NW 1022,4 59 60 0,0
22.09.2018 18:00:00 21,5 1,2 25,0 18,0 17,4 13 7 20 11 W 1021,7 60 60 0,0
22.09.2018 17:00:00 21,7 1,3 25,9 17,9 17,3 13 7 27 15 WNW 1021,6 54 60 0,0
22.09.2018 16:00:00 21,7 7,9 26,8 17,9 17,4 11 6 23 13 WNW 1021,6 20 60 0,0
22.09.2018 15:00:00 20,6 3,3 26,7 17,9 17,4 10 6 27 15 NW 1022,3 60 60 0,0
22.09.2018 14:00:00 19,6 4,5 25,7 17,9 17,3 5 3 16 9 W 1022,5 56 60 0,0
22.09.2018 13:00:00 17,3 6,5 23,2 18,0 17,3 6 3 13 7 W 1023,3 19 60 0,0
22.09.2018 12:00:00 15,1 9,0 20,0 18,1 17,4 4 2 10 5 ZW 1024,2 19 60 0,0
22.09.2018 11:00:00 12,6 8,9 16,0 18,2 17,3 0 0 8 4 N 1025,0 48 58 0,0
22.09.2018 10:00:00 9,6 7,4 10,8 18,3 17,4 2 1 8 4 NNW 1025,5 59 33 0,0
22.09.2018 09:00:00 7,6 7,0 7,5 18,3 17,4 4 2 8 4 ZO 1025,7 21 24 0,0
22.09.2018 08:00:00 7,1 6,4 7,3 18,4 17,4 5 3 9 5 O 1025,7 0,3 0 0,0
22.09.2018 07:00:00 7,4 6,2 6,5 18,6 17,4 5 3 9 5 O 1025,2 59 0 0,0
22.09.2018 06:00:00 7,2 6,3 6,0 18,6 17,3 5 3 8 4 ONO 1025,2 60 0 0,0
22.09.2018 05:00:00 7,7 6,8 6,5 18,7 17,4 5 3 10 5 NO 1025,2 39 0 0,0
22.09.2018 04:00:00 8,7 7,9 7,2 18,8 17,4 5 3 10 6 NO 1025,1 41 0 0,0
22.09.2018 03:00:00 10,4 9,8 10,5 18,8 17,4 5 3 14 7 N 1025,4 18 0 0,0
22.09.2018 02:00:00 10,7 10,1 10,0 18,9 17,4 6 3 16 9 NNW 1024,8 16 0 0,0
22.09.2018 01:00:00 11,1 10,5 10,4 19,0 17,4 10 5 14 8 NW 1024,8 17 0 0,0
22.09.2018 00:00:00 11,5 10,9 10,3 19,0 17,4 11 6 15 8 NW 1024,9 1,6 0 0,0
21.09.2018 23:00:00 11,8 11,0 11,0 19,0 17,4 4 2 14 8 W 1023,9 38 0 0,0
21.09.2018 22:00:00 12,3 11,4 11,8 19,0 17,4 9 5 13 7 NW 1023,7 50 0 0,0
21.09.2018 21:00:00 12,8 11,9 12,4 19,0 17,4 7 4 14 8 NW 1022,9 60 0 0,0
21.09.2018 20:00:00 13,5 12,7 13,4 19,0 17,4 11 6 24 13 NW 1022,4 5 0 0,2
21.09.2018 19:00:00 14,4 13,6 14,4 19,0 17,4 11 6 26 14 NW 1021,6 20 0 0,4
21.09.2018 18:00:00 15,2 14,2 15,3 19,0 17,4 21 11 51 27 WNW 1020,8 3,1 0 1,2
21.09.2018 17:00:00 20,4 12,9 20,7 18,9 17,4 20 11 35 19 W 1018,0 53 7 0,0
21.09.2018 16:00:00 20,5 13,7 21,7 18,9 17,3 12 7 28 15 ZW 1017,8 52 0 0,0
21.09.2018 15:00:00 21,0 12,7 23,5 18,9 17,4 14 8 26 14 W 1017,9 18 3 0,0
21.09.2018 14:00:00 20,2 12,2 21,5 18,9 17,3 11 6 28 15 WZW 1018,7 20 37 0,0
21.09.2018 13:00:00 18,7 13,1 20,8 19,0 17,4 14 7 22 12 W 1019,4 19 0 0,0
21.09.2018 12:00:00 17,8 13,7 20,0 19,1 17,3 7 4 23 12 NNW 1019,2 20 11 0,0
21.09.2018 11:00:00 17,8 14,1 17,0 19,1 17,4 10 6 16 9 WNW 1019,0 18 17 0,0
21.09.2018 10:00:00 16,0 11,0 15,3 19,2 17,4 3 2 8 5 W 1018,8 40 4 0,0
21.09.2018 09:00:00 14,2 10,6 11,8 19,3 17,4 2 1 6 4 OZO 1018,7 20 0 0,0
21.09.2018 08:00:00 13,0 10,0 10,7 19,4 17,4 5 3 10 5 O 1018,0 14 0 0,0
21.09.2018 07:00:00 13,3 9,7 11,6 19,5 17,4 6 3 10 6 O 1017,4 51 0 0,0
21.09.2018 06:00:00 13,2 9,3 11,4 19,5 17,4 11 6 18 10 O 1017,2 52 0 0,0
21.09.2018 05:00:00 13,6 9,8 10,6 19,6 17,4 12 6 19 10 O 1017,3 51 0 0,0
21.09.2018 04:00:00 13,4 10,0 10,7 19,7 17,4 11 6 14 7 O 1017,3 48 0 0,0
21.09.2018 03:00:00 13,3 10,5 10,5 19,7 17,3 9 5 11 6 O 1017,7 39 0 0,0
21.09.2018 02:00:00 13,6 10,4 11,1 19,7 17,4 9 5 16 8 O 1017,7 48 0 0,0
21.09.2018 01:00:00 14,4 10,4 11,8 19,7 17,4 12 7 14 8 O 1017,8 48 0 0,0
21.09.2018 00:00:00 14,7 10,7 11,8 19,7 17,4 8 4 16 9 O 1018,0 47 0 0,0
20.09.2018 23:00:00 16,1 11,7 13,3 19,6 17,4 13 7 14 8 O 1017,5 49 0 0,0
20.09.2018 22:00:00 17,2 12,3 13,3 19,6 17,4 9 5 12 7 O 1017,3 47 0 0,0
20.09.2018 21:00:00 20,9 12,1 14,1 19,5 17,4 7 4 11 6 NO 1016,3 54 0 0,0
20.09.2018 20:00:00 24,0 9,2 19,3 19,3 17,4 4 2 11 6 W 1015,6 58 30 0,0
20.09.2018 19:00:00 26,9 8,8 28,8 19,2 17,4 8 4 16 9 WZW 1015,0 51 60 0,0
20.09.2018 18:00:00 28,0 11,5 26,4 19,1 17,4 3 2 12 7 WNW 1014,8 45 51 0,0
20.09.2018 17:00:00 26,6 10,7 26,9 19,0 17,4 5 3 16 8 W 1015,7 48 38 0,0
20.09.2018 16:00:00 28,3 10,0 31,4 18,9 17,3 6 3 19 10 N 1015,7 20 55 0,0
20.09.2018 15:00:00 27,4 11,4 33,5 18,9 17,4 8 4 20 11 WNW 1016,4 17 60 0,0
20.09.2018 14:00:00 26,3 12,0 33,4 18,9 17,4 9 5 16 8 W 1017,4 18 60 0,0
20.09.2018 13:00:00 25,6 13,1 32,5 19,0 17,3 6 4 12 6 N 1018,2 20 60 0,0
20.09.2018 12:00:00 24,2 13,1 30,2 19,1 17,4 4 2 9 5 ZZW 1019,0 18 60 0,0
20.09.2018 11:00:00 23,0 13,2 25,5 19,1 17,3 2 1 7 4 WZW 1019,5 47 60 0,0
20.09.2018 10:00:00 19,5 13,7 17,8 19,2 17,4 3 2 10 5 OZO 1020,5 20 60 0,0
20.09.2018 09:00:00 15,1 12,6 10,4 19,3 17,4 5 3 8 5 OZO 1021,7 17 60 0,0

tt = temperatuur
td = dauwpunt
tt 5cm = temperatuur 5cm
tt -20cm = temperatuur -20cm
tt -100cm = temperatuur -100cm
ff = windsnelheid
fx = windstoten
dd = windrichting
ppp = luchtdruk
vv = zicht
sd = Zonneschijnduur
rr = neerslag

Weerstations in de omgeving